sat.trackr.live / text

‹ back to catalog

UKUBE-1

NORAD 40074 · 2014-037F

PAYLOAD ACTIVE UNKNOWN

§ Identity

Operator
Country
UK
Launch date
2014-07-08
Launch site
TYMSC
Launch vehicle
Mass (kg)
RCS (m²)
0.12

Purposes: tech_demo

External: N2YO · Heavens-Above · Gunter

§ Orbital elements

Epoch: 2026-09-19T19:09:12.869568Z

Period
95.06 min
Inclination
98.4270°
Eccentricity
0.0001599
Mean motion
15.14785129 rev/d
Perigee alt
520.5 km
Apogee alt
522.7 km
Semi-major
6,899.8 km
B*
2.7849e-4
RAAN
276.1250°
Arg perigee
148.3450°
Mean anomaly
211.7875°
Rev number
66,287

§ Raw data

UKUBE-11 40074U 14037F   26262.79806562  .00005089  00000+0  27849-3 0  99952 40074  98.4270 276.1250 0001599 148.3450 211.7875 15.14785129662872

JSON: /api/v1/satellites/40074 · /tle

For live sub-satellite position, see the globe view (requires WebGL).

§ Visibility from observer

Set your observer location to see the next 7 days of passes ≥ 10°. The values pass through the URL so the page stays shareable.

No JS? Fill the form by hand. The geolocation button needs JavaScript.

§ Radio — SatNOGS DB

ModeDescriptionDownlinkUplink
BPSK BPSK TLM 1k2 callsign UKUBE-1 145.840 MHz
CW CW Beacon (drifted) 145.844 MHz
CW CW TLM beacon (current) 145.844 MHz
CW CW TLM beacon callsign UKUBE-1 145.840 MHz
BPSK FUNcube-2 telemetry (drifted) 145.915 MHz
USB Inverting linear transponder 145.930 MHz–145.950 MHz 435.074 MHz–435.094 MHz

6 transmitters · refreshed weekly from db.satnogs.org